Date,TemperatureHighF,TemperatureAvgF,TemperatureLowF,DewpointHighF,DewpointAvgF,DewpointLowF,HumidityHigh,HumidityAvg,HumidityLow,PressureMaxIn,PressureMinIn,WindSpeedMaxMPH,WindSpeedAvgMPH,GustSpeedMaxMPH,PrecipitationSumIn
2013-1-1,19.3,5.1,13.3,17.0,-65.7,-99.9,91,27,88,30.36,30.08,9,-700,17,0.00
2013-1-2,22.4,18.5,14.7,19.0,16.2,13.0,93,90,84,30.17,30.01,11,4,15,0.00
2013-1-3,16.3,7.2,6.3,13.0,-32.7,-99.9,90,52,75,30.35,30.15,12,-369,17,0.00
2013-1-4,27.7,18.9,11.7,18.0,13.8,10.0,93,81,67,30.19,30.08,14,5,20,0.00
2013-1-5,22.9,11.5,9.5,15.0,-18.3,-99.9,93,62,71,30.15,29.93,7,-267,12,0.00
2013-1-6,18.7,12.8,9.8,14.0,3.0,-99.9,94,79,74,30.31,30.02,15,-60,19,0.00
2013-1-7,34.8,26.9,17.5,26.0,21.9,15.0,89,81,69,30.02,29.94,16,7,20,0.00
2013-1-8,32.4,25.5,17.7,28.0,22.6,16.0,95,89,79,30.03,29.77,14,5,19,0.00
2013-1-9,33.2,28.5,23.2,28.0,22.5,20.0,88,78,69,30.38,29.95,27,10,36,0.00
2013-1-10,40.0,33.9,26.8,32.0,26.4,22.0,97,76,52,30.31,29.74,11,6,18,0.16
2013-1-11,37.5,35.0,32.9,37.0,34.6,32.0,99,98,97,29.74,29.38,17,5,24,0.03
2013-1-12,34.0,10.3,6.8,34.0,-21.9,-99.9,98,58,71,30.15,29.39,33,-278,45,0.00
2013-1-13,5.9,0.5,5.1,0.0,-90.3,-99.9,78,7,75,30.33,30.13,8,-902,13,0.00
2013-1-14,10.6,1.7,5.1,3.0,-78.8,-99.9,78,15,70,30.51,30.33,10,-790,13,0.00
2013-1-15,26.4,12.8,12.2,18.0,-29.3,-99.9,89,46,65,30.35,29.86,12,-374,19,0.00
2013-1-16,33.9,23.4,9.9,31.0,10.3,-99.9,95,71,51,30.31,29.70,22,-58,28,0.00
2013-1-17,18.3,7.3,10.6,10.0,-45.8,-99.9,81,37,61,30.45,30.31,11,-492,13,0.00
2013-1-18,45.1,26.3,14.6,31.0,18.1,-99.9,91,79,49,30.34,29.79,11,-28,16,0.03
2013-1-19,37.1,19.6,-1.7,30.0,14.0,-9.0,95,79,59,30.34,29.73,23,7,35,0.01
2013-1-20,4.9,-1.3,-6.3,-2.0,-8.9,-13.0,75,70,63,30.51,30.33,16,6,20,0.00
2013-1-21,-6.6,-10.3,-14.4,-13.0,-17.5,-21.0,79,70,63,30.49,30.41,16,6,20,0.00
2013-1-22,1.6,-7.7,-16.1,-5.0,-14.2,-21.0,81,73,65,30.55,30.37,10,3,12,0.00
2013-1-23,11.7,2.9,-8.6,4.0,-6.0,-18.0,85,67,51,30.74,30.28,17,6,23,0.00
2013-1-24,10.8,-1.0,-9.8,1.0,-10.8,-19.0,67,63,56,30.79,30.26,17,6,21,0.00
2013-1-25,15.2,8.8,-1.2,9.0,0.9,-7.0,78,70,59,30.41,30.04,20,7,27,0.00
2013-1-26,21.2,9.0,-4.6,11.0,0.8,-9.0,83,70,60,30.44,30.18,8,3,16,0.00
2013-1-27,30.8,26.3,18.4,28.0,20.7,10.0,96,80,64,30.18,29.85,10,3,15,0.00
2013-1-28,34.1,30.1,27.1,33.0,29.2,26.0,98,96,93,29.93,29.68,8,2,12,0.11
2013-1-29,33.3,29.8,24.6,30.0,27.0,20.0,98,90,80,29.81,29.57,20,5,25,0.05
2013-1-30,24.4,13.9,4.3,19.0,8.4,0.0,85,79,73,29.85,29.74,17,7,22,0.00
2013-1-31,4.0,-2.1,-11.8,0.0,-8.6,-18.0,82,74,66,30.40,29.86,14,7,24,0.00
2013-2-1,-0.7,-7.8,-17.1,-4.0,-13.5,-22.0,85,76,62,30.44,30.19,9,4,16,0.00
2013-2-2,7.1,2.3,-2.9,3.0,-2.8,-7.0,86,80,66,30.31,30.09,7,2,13,0.00
2013-2-3,10.1,7.3,1.1,6.0,2.2,-3.0,88,80,66,30.19,30.07,11,4,19,0.00
2013-2-4,12.4,6.8,-0.7,10.0,-0.3,-7.0,89,73,57,30.17,29.81,11,4,15,0.00
2013-2-5,26.6,19.2,4.7,23.0,14.5,2.0,93,82,63,30.14,29.73,12,4,17,0.00
2013-2-6,22.0,13.4,4.2,18.0,10.0,1.0,89,86,80,30.16,30.00,13,4,15,0.00
2013-2-7,25.3,22.5,19.7,21.0,19.4,16.0,94,88,78,30.34,30.09,18,12,24,0.00
2013-2-8,23.8,19.1,10.2,20.0,15.5,8.0,93,85,75,30.43,30.25,13,5,18,0.00
2013-2-9,29.6,26.6,23.4,28.0,24.1,20.0,96,90,87,30.25,29.96,19,7,24,0.00
2013-2-10,29.7,27.2,25.5,29.0,26.1,24.0,98,95,91,29.96,29.35,22,9,24,0.00
2013-2-11,26.4,21.2,11.3,26.0,17.3,8.0,97,85,76,30.10,29.43,17,6,24,0.00
2013-2-12,29.5,19.9,11.7,21.0,15.5,9.0,92,83,69,30.10,29.87,12,6,16,0.00
2013-2-13,34.4,25.9,16.2,30.0,22.6,14.0,97,87,71,29.87,29.62,10,4,13,0.04
2013-2-14,30.2,22.3,6.9,30.0,14.7,-3.0,98,74,44,30.25,29.67,14,4,18,0.00
2013-2-15,16.1,7.1,0.2,4.0,0.2,-3.0,86,74,54,30.41,30.26,8,4,13,0.00
2013-2-16,15.8,5.6,-1.1,8.0,1.4,-4.0,88,83,64,30.37,30.19,6,2,8,0.00
2013-2-17,29.8,19.0,5.2,22.0,13.4,2.0,88,79,68,30.19,29.66,21,8,28,0.00
2013-2-18,30.0,18.8,3.2,28.0,13.9,-2.0,93,81,73,29.92,29.56,18,8,29,0.00
2013-2-19,3.4,-0.3,-4.8,-2.0,-8.0,-12.0,80,70,59,30.50,29.92,17,6,24,0.00
2013-2-20,10.7,0.6,-10.0,0.0,-6.6,-14.0,84,72,60,30.60,30.51,8,2,10,0.00
2013-2-21,19.3,10.4,1.3,15.0,3.5,-4.0,85,74,63,30.56,30.19,18,8,22,0.00
2013-2-22,25.8,21.0,18.2,20.0,17.7,15.0,92,87,73,30.18,29.93,15,7,20,0.00
2013-2-23,27.4,19.8,7.4,21.0,16.4,5.0,94,87,75,30.02,29.91,9,4,12,0.00
2013-2-24,31.3,15.0,0.1,24.0,10.5,-3.0,94,83,62,30.19,30.02,5,1,7,0.00
2013-2-25,30.4,22.0,15.6,21.0,17.2,13.0,93,82,69,30.19,30.11,6,1,8,0.00
2013-2-26,31.9,21.3,8.5,25.0,17.5,6.0,94,85,72,30.13,29.98,18,6,23,0.00
2013-2-27,38.5,28.9,21.6,24.0,21.1,18.0,88,74,54,30.11,29.96,18,8,23,0.01
2013-2-28,27.5,25.4,18.1,22.0,18.9,12.0,83,76,70,30.29,30.11,14,7,17,0.00
2013-3-1,25.4,20.2,11.7,16.0,13.6,6.0,84,75,66,30.44,30.29,13,6,17,0.00
2013-3-2,26.7,15.8,3.8,12.0,8.4,1.0,90,74,51,30.43,30.24,6,2,7,0.00
2013-3-3,32.0,24.8,17.7,13.0,10.3,7.0,73,55,36,30.23,30.02,12,4,16,0.00
2013-3-4,25.9,23.0,21.0,20.0,17.6,12.0,93,80,57,30.08,29.98,12,4,20,0.00
2013-3-5,26.5,22.9,20.3,24.0,20.6,17.0,94,90,83,30.38,30.03,14,7,18,0.00
2013-3-6,24.4,20.0,10.9,17.0,15.5,9.0,94,82,73,30.48,30.39,13,3,13,0.00
2013-3-7,31.0,17.4,-0.4,17.0,10.9,-4.0,92,77,55,30.46,30.34,11,3,14,0.00
2013-3-8,37.4,26.4,15.6,28.0,21.1,14.0,93,81,63,30.38,30.13,8,3,10,0.03
2013-3-9,35.5,33.4,31.4,35.0,32.4,28.0,98,96,81,30.13,29.73,9,4,14,0.60
2013-3-10,32.3,29.2,25.4,31.0,25.3,20.0,96,85,79,30.04,29.85,29,16,34,0.01
2013-3-11,28.8,24.4,19.3,21.0,19.0,14.0,86,80,66,29.95,29.83,17,7,22,0.00
2013-3-12,27.2,22.0,16.7,18.0,13.9,9.0,83,72,54,30.28,29.89,15,5,22,0.00
2013-3-13,27.8,17.8,7.6,17.0,12.1,5.0,90,79,61,30.46,30.29,10,3,12,0.00
2013-3-14,38.5,28.8,21.5,26.0,22.6,17.0,92,78,57,30.30,30.07,9,3,12,0.02
2013-3-15,31.3,27.8,21.2,29.0,25.5,19.0,94,91,85,30.06,29.89,14,7,21,0.00
2013-3-16,21.1,16.5,6.9,19.0,10.1,0.0,92,76,59,30.33,29.98,15,5,19,0.00
2013-3-17,25.4,17.6,2.8,19.0,7.4,-3.0,77,65,54,30.36,29.91,16,6,20,0.00
2013-3-18,29.0,19.2,8.3,28.0,14.8,3.0,96,83,72,29.91,29.65,26,13,33,0.01
2013-3-19,17.7,9.2,2.6,5.0,0.3,-3.0,80,68,49,30.31,29.91,16,9,25,0.00
2013-3-20,19.0,9.3,1.4,4.0,-1.4,-5.0,74,63,47,30.34,30.22,15,6,23,0.00
2013-3-21,22.4,11.6,-1.3,8.0,2.1,-6.0,83,67,51,30.24,30.14,7,2,9,0.00
2013-3-22,33.0,19.0,4.0,15.0,9.0,0.0,85,67,43,30.19,30.12,8,2,9,0.00
2013-3-23,35.5,23.4,12.5,21.0,14.3,9.0,86,70,43,30.23,30.15,7,2,9,0.00
2013-3-24,30.8,26.6,22.6,25.0,21.0,19.0,94,80,63,30.17,30.05,22,7,25,0.00
2013-3-25,34.0,27.6,21.9,24.0,17.0,14.0,87,65,47,30.30,30.12,18,6,26,0.00
2013-3-26,34.7,25.7,15.9,21.0,17.5,12.0,86,72,55,30.36,30.30,10,3,11,0.00
2013-3-27,36.9,28.4,18.2,19.0,16.5,13.0,89,63,43,30.41,30.36,7,2,10,0.00
2013-3-28,42.0,32.1,19.5,26.0,21.0,15.0,82,64,49,30.40,30.31,9,2,13,0.00
2013-3-29,47.1,38.2,30.8,37.0,30.9,25.0,84,75,61,30.32,30.07,10,4,14,0.00
2013-3-30,47.3,39.9,31.6,40.0,35.2,29.0,95,84,73,30.06,29.89,12,5,17,0.22
2013-3-31,34.8,30.1,19.1,30.0,21.7,12.0,96,73,47,30.17,29.84,14,7,25,0.00
2013-4-1,30.0,21.0,13.0,17.0,12.3,8.0,83,70,54,30.35,30.18,12,5,20,0.00
2013-4-2,34.0,24.4,14.9,16.0,13.9,12.0,88,67,42,30.42,30.33,7,3,14,0.00
2013-4-3,44.8,32.4,18.5,33.0,22.6,13.0,88,68,52,30.45,30.07,17,6,29,0.00
2013-4-4,44.4,38.3,29.2,33.0,28.0,22.0,86,67,47,30.23,30.03,19,5,23,0.00
2013-4-5,38.1,31.0,23.8,31.0,23.5,18.0,92,75,46,30.28,29.91,13,5,18,0.01
2013-4-6,49.5,38.9,34.2,40.0,33.0,30.0,90,80,66,29.91,29.57,11,5,19,0.05
2013-4-7,45.5,38.3,33.2,38.0,32.5,29.0,95,80,67,29.97,29.79,8,3,13,0.18
2013-4-8,41.5,38.5,35.5,39.0,37.2,34.0,98,95,87,30.09,29.72,20,8,21,0.07
2013-4-9,38.0,33.8,30.1,34.0,27.2,23.0,89,77,61,30.24,30.06,25,14,30,0.00
2013-4-10,36.4,33.5,31.2,29.0,23.0,19.0,90,66,57,30.23,29.95,29,14,35,0.00
2013-4-11,33.8,29.8,26.1,30.0,26.6,21.0,96,88,62,29.96,29.75,25,16,34,0.07
2013-4-12,33.6,29.1,25.1,29.0,26.0,24.0,96,89,72,29.90,29.75,13,5,18,0.07
2013-4-13,35.0,29.8,25.3,27.0,24.3,21.0,96,81,62,30.00,29.88,10,4,14,0.02
2013-4-14,32.8,29.7,26.6,32.0,26.3,22.0,98,87,73,29.98,29.52,24,7,33,0.00
2013-4-15,35.5,33.3,30.1,33.0,28.0,26.0,97,81,74,30.02,29.52,28,14,35,0.02
2013-4-16,40.7,34.5,29.5,28.0,25.9,24.0,83,72,57,30.37,30.02,20,4,24,0.00
2013-4-17,37.5,33.5,30.9,32.0,28.0,25.0,97,80,72,30.37,30.02,20,10,26,0.01
2013-4-18,30.9,29.8,28.7,30.0,29.3,28.0,98,97,95,30.02,29.61,27,13,32,0.00
2013-4-19,37.3,30.5,25.9,28.0,23.9,14.0,98,79,41,30.06,29.59,14,7,31,0.07
2013-4-20,37.0,28.5,17.6,18.0,15.2,10.0,88,60,35,30.35,30.06,10,3,13,0.00
2013-4-21,46.6,37.4,29.9,43.0,33.5,17.0,97,86,57,30.35,30.04,15,6,26,0.15
2013-4-22,37.8,33.3,29.2,33.0,28.8,24.0,97,84,62,30.27,30.16,24,10,30,0.00
2013-4-23,38.0,31.1,23.2,29.0,22.0,17.0,97,71,44,30.24,30.13,14,4,17,0.00
2013-4-24,46.4,34.0,24.8,33.0,27.3,22.0,94,79,45,30.13,29.95,28,8,34,0.05
2013-4-25,49.4,37.6,28.5,31.0,28.3,26.0,94,71,45,30.24,30.04,11,6,16,0.00
2013-4-26,49.3,44.9,42.7,40.0,35.2,30.0,77,69,59,30.07,29.96,11,6,22,0.00
2013-5-2,41.3,36.0,32.1,23.0,18.5,-99.9,70,54,46,30.51,0.00,19,-24,24,0.00
2013-5-3,38.9,33.6,28.2,33.0,26.1,22.0,89,75,58,30.49,30.22,25,13,30,0.01
2013-5-4,41.5,35.5,30.7,39.0,33.6,29.0,95,92,89,30.24,30.18,19,12,23,0.07
2013-5-5,64.9,46.9,36.0,48.0,40.7,34.0,95,81,53,30.23,30.11,11,5,13,0.01
2013-5-6,70.7,57.7,42.3,50.0,45.3,41.0,94,67,44,30.14,30.01,9,2,13,0.00
2013-5-7,75.4,64.4,52.4,51.0,46.7,43.0,86,56,31,30.05,29.93,16,3,16,0.00
2013-5-8,72.3,61.7,56.0,56.0,49.4,44.0,90,66,40,30.00,29.94,21,5,23,0.13
2013-5-9,55.8,50.8,41.9,53.0,46.1,30.0,93,84,63,30.15,29.96,25,12,29,0.01
2013-5-10,64.1,49.2,32.9,40.0,27.2,19.0,78,47,20,30.17,29.89,16,7,21,0.01
2013-5-11,53.4,44.7,38.8,39.0,24.8,18.0,76,48,30,30.21,29.92,25,8,34,0.00
2013-5-12,57.5,45.4,32.9,28.0,19.4,12.0,65,39,17,30.27,30.12,11,3,21,0.00
2013-5-13,74.7,56.0,40.2,47.0,32.8,20.0,63,43,30,30.13,29.63,23,5,27,0.01
2013-5-14,93.8,73.2,55.5,51.0,43.0,30.0,60,37,13,29.67,29.44,17,6,36,0.00
2013-5-15,79.6,64.8,51.3,50.0,43.5,38.0,74,48,23,29.89,29.68,18,6,23,0.00
2013-5-16,79.2,68.4,52.7,47.0,40.5,30.0,68,39,23,29.91,29.81,20,7,22,0.00
2013-5-17,65.4,57.7,54.8,55.0,48.7,30.0,97,77,27,29.96,29.87,14,5,20,0.24
2013-5-18,77.7,64.7,54.8,67.0,60.3,54.0,100,86,64,29.95,29.75,15,5,19,2.60
2013-5-19,76.8,67.1,61.3,69.0,63.1,61.0,99,87,65,29.76,29.53,13,4,19,0.64
2013-5-20,69.4,62.6,58.0,62.0,59.3,57.0,100,89,70,29.55,29.46,12,5,24,0.52
2013-5-21,58.9,49.5,44.1,58.0,49.2,43.0,100,98,97,29.75,29.50,17,11,21,0.16
2013-5-22,49.2,45.4,42.1,48.0,44.5,42.0,100,96,85,30.03,29.73,20,13,26,0.11
2013-5-23,61.2,50.8,42.2,43.0,35.7,29.0,91,60,30,30.34,30.05,19,9,25,0.00
2013-5-24,65.4,53.7,41.4,51.0,38.5,30.0,94,59,38,30.39,30.19,10,4,17,0.36
2013-5-25,59.5,54.2,51.2,50.0,48.2,46.0,96,81,68,30.24,30.20,16,5,22,0.01
2013-5-26,55.9,53.6,50.9,48.0,43.1,36.0,77,68,50,30.22,30.03,13,5,21,0.00
2013-5-27,60.8,55.6,51.4,54.0,50.7,47.0,96,83,73,30.05,29.84,16,6,17,0.00
2013-5-28,59.0,55.0,51.6,56.0,53.1,50.0,96,93,86,29.83,29.71,10,3,13,0.02
2013-5-29,73.8,64.3,52.2,68.0,60.0,51.0,99,87,66,29.82,29.61,10,4,20,0.00
2013-5-30,72.2,66.0,62.6,65.0,62.7,61.0,97,89,70,29.63,29.47,13,5,25,0.35
2013-5-31,70.5,64.1,58.0,61.0,55.8,51.0,98,76,52,29.51,29.46,15,7,25,0.33
2013-6-1,61.5,53.7,50.9,54.0,46.5,43.0,80,76,72,29.96,29.72,23,9,24,0.00
2013-6-2,64.5,55.0,45.1,47.0,41.2,39.0,84,62,39,30.10,29.97,16,5,20,0.00
2013-6-3,65.7,58.4,45.7,46.0,43.5,40.0,90,60,39,30.07,29.95,8,2,11,0.00
2013-6-4,59.7,55.9,52.8,56.0,50.6,45.0,96,83,60,30.06,29.96,13,5,18,0.32
2013-6-5,60.9,54.7,50.0,55.0,52.1,49.0,96,91,80,30.05,29.95,13,4,16,0.00
2013-6-6,55.4,50.9,47.7,51.0,49.0,47.0,99,93,81,30.06,29.99,13,6,16,0.00
2013-6-7,62.9,54.7,48.7,53.0,49.9,47.0,95,84,66,30.07,29.92,6,2,8,0.00
2013-6-8,68.5,60.8,51.6,55.0,52.8,50.0,97,76,54,29.92,29.87,11,3,17,0.00
2013-6-9,61.5,57.7,55.0,59.0,55.7,54.0,97,93,80,29.87,29.77,14,7,25,0.52
2013-6-10,72.5,62.5,56.9,62.0,59.0,57.0,100,89,68,29.87,29.80,8,2,10,0.00
2013-6-11,74.1,65.0,57.6,68.0,62.1,57.0,99,90,77,29.90,29.79,9,2,12,0.02
2013-6-12,72.7,64.0,56.0,63.0,56.3,51.0,96,76,63,29.94,29.78,15,5,19,0.51
2013-6-13,75.5,65.5,55.0,57.0,53.2,50.0,83,66,43,30.11,29.95,12,4,15,0.00
2013-6-14,76.0,67.8,57.4,62.0,57.2,51.0,82,69,59,30.06,29.83,14,4,23,0.00
2013-6-15,78.8,69.9,62.6,67.0,61.8,50.0,96,77,43,29.88,29.82,12,3,17,0.00
2013-6-16,83.5,70.2,59.6,60.0,51.3,43.0,80,55,24,29.91,29.81,24,6,41,0.01
2013-6-17,77.2,68.8,59.2,59.0,55.5,51.0,83,64,45,30.01,29.84,15,6,20,0.00
2013-6-18,74.7,62.2,49.9,58.0,52.2,44.0,85,71,51,30.09,30.00,12,4,17,0.01
2013-6-19,82.2,71.0,58.6,63.0,58.4,55.0,87,66,45,30.03,29.90,12,3,13,0.00
2013-6-20,86.3,76.7,68.6,68.0,63.3,58.0,81,65,47,29.95,29.80,11,4,20,0.00
2013-6-21,79.7,70.7,61.8,68.0,64.1,61.0,96,80,59,29.99,29.67,11,4,23,0.94
2013-6-22,76.9,69.0,63.2,68.0,65.2,62.0,98,88,72,29.96,29.79,16,4,34,0.29
2013-6-23,78.4,71.9,65.2,69.0,65.9,62.0,99,82,61,29.85,29.63,20,6,26,1.05
2013-6-24,80.3,71.5,62.2,71.0,65.7,61.0,96,83,63,29.87,29.76,8,2,12,0.00
2013-6-25,83.6,73.8,63.5,72.0,67.4,62.0,95,81,62,29.79,29.66,11,3,12,0.00
2013-6-26,83.9,76.5,71.1,72.0,68.4,63.0,99,78,55,29.78,29.62,17,4,26,0.00
2013-6-27,82.7,75.9,69.2,67.0,59.9,52.0,89,60,35,29.80,29.76,17,7,27,0.00
2013-6-28,76.2,70.2,65.6,65.0,59.3,55.0,84,69,55,29.79,29.75,23,6,30,0.01
2013-6-29,74.6,67.3,60.0,62.0,58.2,52.0,97,75,49,29.99,29.75,21,8,27,0.51
2013-6-30,78.8,67.9,54.4,57.0,53.0,49.0,91,62,37,30.11,29.98,17,5,20,0.00
2013-7-1,81.4,71.3,58.8,61.0,56.3,53.0,87,62,38,30.18,30.11,12,4,14,0.00
2013-7-2,80.0,70.5,58.8,59.0,53.0,41.0,84,57,33,30.15,30.03,14,4,14,0.00
2013-7-3,83.2,72.3,61.2,61.0,56.0,51.0,97,60,33,30.05,29.91,6,1,11,0.00
2013-7-4,84.9,73.8,61.1,63.0,58.2,55.0,87,61,37,29.93,29.80,11,3,16,0.00
2013-7-5,85.5,76.7,67.7,65.0,60.7,56.0,71,58,44,29.84,29.74,21,6,24,0.00
2013-7-6,81.6,75.0,70.5,72.0,65.0,60.0,78,71,62,29.82,29.75,6,2,11,0.00
2013-7-7,88.8,77.2,69.1,75.0,68.9,66.0,93,76,56,29.86,29.77,13,2,14,0.39
2013-7-8,85.4,70.0,62.1,70.0,66.0,62.0,100,89,55,29.99,29.86,9,4,12,0.09
2013-7-9,81.8,73.2,66.2,70.0,67.2,63.0,97,82,62,29.93,29.66,20,5,33,0.48
2013-7-10,78.4,69.1,58.5,63.0,56.9,54.0,90,67,45,30.04,29.92,10,3,19,0.00
2013-7-11,81.0,71.1,59.0,62.0,59.2,57.0,97,69,46,30.09,29.93,8,2,14,0.00
2013-7-12,85.1,75.0,67.0,65.0,60.7,57.0,72,62,49,29.95,29.82,15,6,22,0.00
2013-7-13,75.8,70.5,66.9,69.0,65.1,58.0,97,83,61,30.02,29.85,13,6,24,0.53
2013-7-14,80.8,72.7,66.5,69.0,65.2,59.0,88,77,63,30.15,30.01,8,2,16,0.00
2013-7-15,83.8,75.6,67.1,70.0,67.1,64.0,97,76,56,30.20,30.11,9,3,15,0.00
2013-7-16,87.3,79.8,71.4,72.0,69.5,66.0,94,72,49,30.17,30.11,19,5,21,0.00
2013-7-17,88.6,79.8,70.4,73.0,69.2,66.0,90,71,53,30.20,30.06,17,5,20,0.00
2013-7-18,89.3,81.5,72.0,73.0,70.3,68.0,90,70,50,30.05,29.70,19,7,31,0.00
2013-7-19,80.7,76.0,61.9,71.0,63.9,59.0,94,67,48,29.89,29.68,15,5,29,0.09
2013-7-20,74.4,67.4,61.2,64.0,59.8,57.0,95,78,57,29.94,29.85,11,4,14,0.11
2013-7-21,79.4,68.3,58.5,68.0,61.3,53.0,92,79,63,29.93,29.75,10,4,13,0.00
2013-7-22,81.4,71.4,63.2,71.0,63.4,56.0,94,77,52,29.85,29.65,14,4,20,0.00
2013-7-23,73.0,64.9,55.8,57.0,54.1,50.0,91,70,46,30.01,29.85,16,5,17,0.00
2013-7-24,77.4,66.8,58.9,59.0,55.7,53.0,88,69,45,30.06,29.95,9,2,12,0.00
2013-7-25,75.9,69.2,59.8,65.0,61.4,57.0,94,77,60,29.96,29.88,12,4,17,0.01
2013-7-26,66.9,61.1,51.0,64.0,53.4,46.0,92,77,60,30.10,29.89,21,6,25,0.00
2013-7-27,64.2,55.9,45.8,48.0,45.8,43.0,93,70,50,30.10,29.96,22,5,23,0.00
2013-7-28,69.6,58.7,46.2,55.0,48.8,43.0,90,71,53,30.07,29.98,17,4,18,0.00
2013-7-29,74.8,63.4,51.2,59.0,54.8,50.0,97,76,48,30.12,30.05,6,2,13,0.06
2013-7-30,68.8,63.4,59.5,64.0,61.2,58.0,99,92,80,30.08,30.03,7,2,7,0.17
2013-7-31,75.6,67.0,58.8,65.0,58.2,50.0,100,77,43,30.07,29.98,16,4,21,0.01
2013-8-1,77.7,66.4,54.4,61.0,55.1,51.0,88,68,47,30.03,29.85,8,4,10,0.00
2013-8-2,76.7,66.7,56.8,58.0,53.7,50.0,86,65,44,30.03,29.85,11,2,15,0.00
2013-8-3,75.5,65.3,52.4,56.0,51.3,48.0,93,64,39,30.20,30.04,13,2,14,0.00
2013-8-4,72.6,62.2,50.9,57.0,52.8,48.0,90,72,48,30.23,29.98,7,3,9,0.00
2013-8-5,77.6,67.1,59.3,66.0,61.4,55.0,99,83,60,30.01,29.78,14,4,23,0.00
2013-8-6,79.2,64.9,55.5,68.0,60.4,55.0,99,87,63,29.83,29.66,16,4,22,0.00
2013-8-7,74.1,64.1,57.0,60.0,55.0,50.0,98,75,46,30.01,29.78,14,4,17,0.00
2013-8-8,73.6,63.4,55.4,62.0,57.8,54.0,97,83,60,30.06,29.97,8,2,11,0.00
2013-8-9,72.8,64.4,55.6,60.0,55.0,51.0,98,74,49,30.12,29.99,6,1,11,0.00
2013-8-10,76.1,64.7,51.2,58.0,54.6,50.0,97,72,46,30.18,30.07,4,1,5,0.00
2013-8-11,79.1,68.9,61.1,65.0,60.4,56.0,94,75,51,30.07,29.98,4,0,8,0.12
2013-8-12,78.7,67.3,55.6,61.0,56.6,54.0,96,71,44,30.06,29.99,10,1,12,0.00
2013-8-13,74.1,62.6,51.3,57.0,51.4,45.0,98,71,38,30.20,30.07,10,2,13,0.00
2013-8-14,60.7,58.9,56.1,52.0,51.8,51.0,84,78,70,30.10,30.09,0,0,1,0.00
2013-8-15,78.2,64.8,53.5,62.0,56.0,51.0,94,75,49,30.12,30.06,4,1,8,0.00
2013-8-16,78.1,66.8,54.2,62.0,56.8,53.0,98,73,46,30.17,30.12,7,1,10,0.00
2013-8-17,79.1,67.6,55.7,60.0,57.2,54.0,94,72,50,30.18,30.07,10,2,13,0.00
2013-8-18,77.9,67.8,55.6,60.0,57.2,53.0,93,71,49,30.11,29.97,12,4,26,0.00
2013-8-19,83.1,72.5,63.4,71.0,65.1,59.0,87,78,64,30.00,29.85,10,4,14,0.00
2013-8-20,84.7,75.9,67.0,74.0,70.1,65.0,95,83,69,29.87,29.80,9,3,13,0.00
2013-8-21,86.6,76.1,69.1,75.0,69.0,58.0,98,80,55,29.98,29.79,11,4,13,0.00
2013-8-22,80.9,71.9,62.7,58.0,52.4,46.0,79,53,31,30.11,29.99,17,6,17,0.00
2013-8-23,82.6,71.1,58.2,67.0,59.0,50.0,87,67,51,30.13,29.99,10,3,16,0.00
2013-8-24,85.9,76.7,68.6,73.0,69.4,66.0,91,79,59,30.01,29.86,13,6,25,0.00
2013-8-25,90.0,81.0,73.4,77.0,73.1,70.0,89,77,63,29.95,29.87,18,7,22,0.00
2013-8-26,90.5,81.6,73.0,77.0,74.8,72.0,97,80,63,29.92,29.77,11,4,14,0.00
2013-8-27,88.3,79.8,72.9,77.0,74.2,71.0,96,84,65,29.89,29.74,12,4,15,0.00
2013-8-28,85.5,75.9,67.5,74.0,70.2,67.0,99,83,66,29.98,29.88,9,3,11,0.00
2013-8-29,87.2,79.5,73.9,76.0,73.0,70.0,97,81,62,29.96,29.79,9,4,14,0.00
2013-8-30,80.2,73.1,67.3,71.0,66.2,63.0,95,80,60,29.91,29.79,15,6,20,0.00
2013-8-31,84.8,70.8,60.9,70.0,64.5,60.0,98,81,58,29.87,29.69,11,4,22,0.11
2013-9-1,70.6,65.9,56.6,64.0,58.8,51.0,90,78,67,29.99,29.73,12,4,21,0.00
2013-9-2,67.9,57.0,49.8,54.0,51.0,48.0,96,81,59,30.11,29.99,10,2,14,0.00
2013-9-3,75.2,60.8,46.6,61.0,55.0,46.0,99,83,56,30.10,29.98,9,2,12,0.01
2013-9-4,83.4,69.0,57.6,66.0,61.0,57.0,99,78,50,30.14,30.00,12,4,16,0.00
2013-9-5,81.3,69.4,60.1,67.0,60.1,55.0,91,74,52,30.20,30.07,9,4,11,0.00
2013-9-6,87.7,76.5,68.1,70.0,68.2,66.0,98,77,54,30.06,29.82,12,4,19,0.00
2013-9-7,88.3,77.1,66.6,71.0,67.3,60.0,99,74,47,29.98,29.82,14,7,21,0.00
2013-9-8,69.7,64.8,61.3,64.0,58.5,52.0,87,80,71,30.02,29.86,14,7,16,0.01
2013-9-9,87.5,73.2,63.5,74.0,68.5,59.0,99,86,63,29.86,29.60,11,3,17,0.06
2013-9-10,79.6,70.1,63.5,67.0,63.2,59.0,98,81,51,29.96,29.74,17,5,22,0.06
2013-9-11,82.0,70.0,60.5,63.0,56.3,49.0,95,66,34,30.07,29.96,14,4,17,0.00
2013-9-12,70.6,61.5,52.6,55.0,48.8,44.0,92,65,42,30.24,30.06,20,5,23,0.00
2013-9-13,69.4,56.9,44.9,49.0,45.4,43.0,96,68,43,30.29,30.08,9,2,12,0.00
2013-9-14,66.5,55.9,47.5,58.0,50.4,44.0,98,83,58,30.08,29.89,12,3,13,0.41
2013-9-15,63.9,56.6,49.1,55.0,53.1,47.0,99,89,70,30.33,29.89,17,8,26,0.22
2013-9-16,63.5,52.4,42.0,47.0,44.1,41.0,96,75,47,30.42,30.25,10,3,11,0.00
2013-9-17,49.9,49.0,47.6,47.0,45.5,43.0,93,88,79,30.25,30.18,5,2,9,0.00
2013-9-26,78.9,73.1,64.0,61.0,59.5,55.0,79,63,51,29.88,29.77,21,7,28,0.00
2013-9-27,80.2,70.8,64.5,65.0,61.6,60.0,88,74,55,29.86,29.73,19,6,25,0.01
2013-9-28,71.8,59.0,46.2,62.0,53.5,44.0,97,82,64,29.92,29.57,21,8,32,0.11
2013-9-29,75.8,57.3,42.0,52.0,45.4,40.0,93,68,35,29.95,29.75,10,4,15,0.00
2013-9-30,78.0,64.9,55.3,54.0,50.2,45.0,74,60,42,29.75,29.55,15,5,20,0.00
2013-10-1,70.5,63.1,51.5,53.0,44.7,34.0,76,54,27,29.97,29.54,19,7,26,0.00
2013-10-2,72.1,56.7,44.6,52.0,43.8,36.0,95,67,29,30.03,29.83,23,6,26,0.16
2013-10-3,55.9,53.6,52.3,55.0,52.8,51.0,99,97,93,29.97,29.86,17,10,21,0.03
2013-10-4,56.5,53.7,50.8,54.0,52.2,50.0,98,95,88,30.00,29.85,24,14,28,0.28
2013-10-5,56.0,50.2,41.2,56.0,47.2,40.0,100,90,68,29.86,29.75,22,5,22,0.05
2013-10-6,49.5,46.2,40.8,48.0,45.3,40.0,99,96,87,29.88,29.70,13,4,19,0.07
2013-10-7,66.4,53.4,43.1,46.0,42.1,39.0,93,69,40,29.99,29.85,9,3,11,0.00
2013-10-8,75.1,60.6,48.5,49.0,45.4,42.0,82,60,36,29.95,29.76,16,5,28,0.00
2013-10-9,74.3,62.7,53.6,54.0,49.5,47.0,80,63,46,30.01,29.88,10,4,18,0.00
2013-10-10,75.9,62.3,50.9,57.0,49.8,45.0,83,65,45,30.01,29.83,12,5,21,0.00
2013-10-11,70.6,63.4,55.2,60.0,53.9,48.0,88,72,55,29.84,29.55,22,8,31,0.15
2013-10-12,54.4,48.2,42.9,48.0,42.6,38.0,91,81,72,30.19,29.67,28,10,34,0.03
2013-10-13,58.0,46.9,35.2,41.0,36.3,33.0,95,70,41,30.46,30.20,9,2,13,0.00
2013-10-14,50.8,46.0,41.8,45.0,39.8,36.0,95,79,62,30.42,29.95,18,6,25,0.52
2013-10-15,48.0,46.6,42.5,48.0,46.2,42.0,99,98,95,29.94,29.68,20,8,25,0.93
2013-10-16,52.9,45.1,39.7,42.0,38.6,33.0,99,80,48,29.98,29.89,12,4,20,0.00
2013-10-17,47.3,42.3,38.5,45.0,39.1,35.0,96,88,79,29.91,29.81,9,3,17,0.39
2013-10-18,49.1,42.1,36.4,38.0,34.0,30.0,95,75,50,30.02,29.86,19,4,25,0.05
2013-10-19,41.1,37.0,31.3,39.0,34.2,29.0,97,90,74,29.85,29.72,11,4,16,0.08
2013-10-20,39.7,34.0,30.0,37.0,32.1,27.0,96,93,78,29.95,29.66,11,3,18,0.06
2013-10-21,37.9,32.6,27.9,26.0,23.8,21.0,89,71,57,30.01,29.95,15,5,25,0.00
2013-10-22,39.0,32.2,26.0,30.0,27.4,24.0,94,82,67,30.09,30.01,8,2,11,0.00
2013-10-23,33.7,32.1,30.2,29.0,24.4,20.0,90,74,60,30.17,30.05,12,3,18,0.00
2013-10-24,40.6,35.2,29.1,31.0,27.2,20.0,90,73,60,30.36,30.18,11,4,18,0.00
2013-10-25,57.0,41.2,24.2,43.0,33.5,23.0,94,76,55,30.36,29.81,19,7,28,0.00
2013-10-26,47.7,39.9,33.4,38.0,29.5,27.0,79,67,56,30.13,29.84,18,5,22,0.00
2013-10-27,54.1,39.4,28.2,35.0,29.5,25.0,87,70,48,30.19,29.85,21,8,27,0.00
2013-10-28,39.3,33.2,27.2,29.0,23.4,20.0,85,69,46,30.49,30.20,20,11,22,0.00
2013-10-29,34.8,32.6,29.0,33.0,28.4,25.0,95,84,78,30.47,30.14,14,8,21,0.04
2013-10-30,45.3,40.4,34.6,45.0,40.1,33.0,100,99,95,30.14,29.71,9,4,13,0.03
2013-10-31,44.4,39.2,37.5,44.0,38.3,36.0,100,97,92,29.70,29.44,12,5,14,0.00
2013-11-1,48.2,40.9,35.3,38.0,36.6,34.0,95,85,64,29.89,29.46,10,3,13,0.00
2013-11-2,48.5,38.9,31.1,36.0,32.3,29.0,93,78,58,30.11,29.89,8,2,14,0.00
2013-11-3,53.0,43.3,34.8,36.0,33.0,31.0,88,69,47,30.12,29.86,21,10,36,0.00
2013-11-4,47.4,42.3,34.4,42.0,36.0,30.0,95,79,62,30.17,29.81,15,6,25,0.25
2013-11-5,38.3,32.2,27.7,32.0,28.6,25.0,98,87,62,30.28,30.10,10,3,13,0.00
2013-11-6,37.7,29.7,25.4,29.0,25.5,22.0,98,85,63,30.20,30.10,11,4,13,0.04
2013-11-7,36.0,27.8,22.8,30.0,25.7,22.0,97,92,76,30.29,30.21,13,3,14,0.01
2013-11-8,40.8,32.6,22.5,37.0,27.6,22.0,97,83,62,30.24,29.63,14,5,20,0.01
2013-11-9,40.9,37.9,34.0,38.0,32.1,27.0,94,80,66,30.25,29.67,21,10,29,0.00
2013-11-10,36.9,34.0,29.7,31.0,28.9,26.0,87,81,73,30.37,30.15,16,5,19,0.00
2013-11-11,34.2,20.6,11.9,30.0,12.4,6.0,84,71,59,30.81,30.18,22,8,28,0.00
2013-11-12,27.2,17.5,9.6,15.0,9.8,6.0,88,73,49,30.86,30.50,13,5,17,0.00
2013-11-13,49.2,33.0,19.7,34.0,24.8,14.0,87,73,54,30.48,29.90,20,8,31,0.00
2013-11-14,51.9,39.5,32.7,39.0,33.9,30.0,91,81,59,29.90,29.77,13,4,18,0.00
2013-11-15,53.5,40.3,29.2,39.0,34.3,28.0,96,81,57,29.86,29.62,13,4,17,0.00
2013-11-16,44.4,41.8,38.2,44.0,40.3,34.0,99,94,77,29.62,29.25,12,4,19,0.11
2013-11-17,40.9,36.7,28.8,41.0,34.0,24.0,99,90,80,29.87,29.31,22,8,31,0.00
2013-11-18,32.7,27.1,21.0,24.0,20.7,18.0,90,77,63,30.31,29.88,19,6,32,0.00
2013-11-19,45.1,34.2,21.1,32.0,26.3,18.0,90,74,55,30.30,29.90,19,8,27,0.00
2013-11-20,44.1,40.7,34.8,34.0,31.3,28.0,90,70,59,30.05,29.88,14,6,23,0.00
2013-11-21,36.2,28.2,23.6,34.0,24.2,15.0,95,85,70,30.51,30.05,20,6,23,0.00
2013-11-25,35.1,31.3,27.1,26.0,22.8,20.0,74,71,65,30.14,30.07,15,6,20,0.00
2013-11-26,27.0,17.4,10.1,19.0,7.1,3.0,79,64,53,30.47,30.14,17,6,25,0.00
2013-11-27,21.1,14.4,5.6,11.0,7.3,3.0,91,74,59,30.48,30.14,12,3,19,0.00
2013-11-28,22.3,19.1,11.0,15.0,11.6,8.0,90,73,62,30.59,30.15,17,2,17,0.00
2013-11-29,30.3,20.6,9.6,20.0,14.3,7.0,92,78,60,30.59,30.18,13,4,19,0.00
2013-11-30,38.7,28.3,20.9,27.0,22.6,19.0,94,79,64,30.24,30.09,6,2,11,0.00
2013-12-1,32.0,23.9,16.3,25.0,20.6,15.0,94,87,74,30.26,29.97,6,1,7,0.00
2013-12-2,35.1,30.9,26.9,32.0,28.9,24.0,98,92,84,29.97,29.61,13,3,14,0.08
2013-12-3,32.9,31.9,29.4,32.0,31.6,29.0,99,99,98,29.82,29.61,14,6,18,0.03
2013-12-4,29.5,23.6,8.9,29.0,22.5,5.0,98,95,85,29.82,29.54,22,10,31,0.00
2013-12-5,8.5,2.6,-3.9,5.0,-2.2,-8.0,85,80,74,30.43,29.76,20,11,29,0.00
2013-12-6,1.0,-5.4,-9.8,-6.0,-10.2,-15.0,85,80,71,30.77,30.44,12,4,16,0.00
2013-12-7,-2.1,-9.3,-15.8,-9.0,-13.6,-19.0,86,81,72,30.85,30.70,14,4,18,0.00
2013-12-8,8.6,1.7,-10.1,6.0,-1.1,-13.0,91,88,85,30.69,30.14,12,3,14,0.00
2013-12-9,4.8,-3.6,-7.9,3.0,-7.6,-12.0,91,83,72,30.21,29.94,19,8,22,0.00
2013-12-10,8.5,2.5,-2.9,5.0,-1.8,-8.0,91,82,74,30.41,29.87,16,6,22,0.00
2013-12-11,-1.5,-7.3,-12.6,-6.0,-12.5,-17.0,83,78,72,30.68,30.41,12,5,15,0.00
2013-12-12,15.2,7.3,-1.2,9.0,3.1,-6.0,89,83,73,30.41,30.24,8,2,11,0.00
2013-12-13,12.9,8.9,5.0,10.0,4.8,2.0,88,83,79,30.39,30.21,20,13,22,0.00
2013-12-14,9.6,4.5,-4.7,6.0,1.0,-10.0,89,85,78,30.38,30.20,13,6,17,0.00
2013-12-15,-1.2,-3.2,-5.2,-8.0,-9.6,-12.0,80,74,66,30.27,30.22,11,5,15,0.00
2013-12-16,29.2,8.2,-1.5,26.0,4.7,-8.0,94,85,73,30.23,29.98,17,5,21,0.00
2013-12-17,31.6,20.7,5.0,27.0,15.7,3.0,92,81,68,30.17,29.96,18,7,26,0.00
2013-12-18,30.8,21.0,6.3,25.0,16.8,4.0,92,84,69,30.12,29.71,10,4,17,0.00
2013-12-19,23.1,13.8,10.9,19.0,9.4,5.0,90,82,74,30.16,29.88,23,14,27,0.00
2013-12-20,13.4,10.4,4.9,10.0,7.5,3.0,91,87,83,30.13,29.94,18,5,20,0.00
2013-12-21,15.7,12.6,9.3,12.0,10.1,7.0,93,89,85,30.10,29.95,16,6,19,0.00
2013-12-22,12.5,8.6,-0.7,9.0,5.2,-4.0,90,86,79,30.35,30.06,8,4,15,0.00
2013-12-23,-1.0,-7.2,-16.6,-4.0,-12.5,-21.0,85,78,67,30.64,30.36,9,4,14,0.00
2013-12-24,8.1,-4.7,-20.0,5.0,-9.9,-24.0,89,79,58,30.62,30.24,12,4,15,0.00
2013-12-25,25.7,14.7,8.2,22.0,11.0,5.0,93,85,71,30.24,30.15,14,4,21,0.00
2013-12-26,21.3,15.5,8.8,19.0,13.2,7.0,95,91,87,30.24,30.14,7,2,7,0.00
2013-12-27,37.5,26.8,12.6,31.0,24.3,11.0,97,91,76,30.23,29.94,17,6,22,0.05
2013-12-28,38.2,26.9,11.7,31.0,24.7,9.0,98,92,72,30.11,29.70,25,6,33,0.01
2013-12-29,11.2,-6.1,-18.1,8.0,-12.9,-22.0,85,72,56,30.44,30.12,21,5,29,0.00
2013-12-30,-0.7,-8.8,-19.2,-4.0,-12.5,-23.0,88,84,80,30.41,30.30,7,2,11,0.00
2013-12-31,-6.3,-10.5,-14.2,-10.0,-15.1,-19.0,86,80,70,30.56,30.34,11,4,13,0.00
2014-1-1,-2.9,-6.6,-11.5,-10.0,-13.0,-17.0,76,73,69,30.64,30.55,12,7,15,0.00
2014-1-2,-0.3,-9.4,-15.9,-11.0,-16.3,-20.0,83,72,49,30.65,30.50,9,4,10,0.00